K8MUD Weather Reports


Display with metric or nautical units.
time (UTC)temp
F
wind
direction
speed
MPH
gust
MPH
rain 1hr
in
rain 24hr
in
rain mn
in
humidity
%
barometer
mb
20260831061502 72 0 0.0 0.0 0.00 0.28 0.00 86 1016.3
20260831061413 72 0 0.0 0.0 0.00 0.28 0.00 86 1016.3
20260831061003 72 0 0.0 0.0 0.00 0.28 0.00 86 1016.2
20260831060913 72 0 0.0 0.0 0.00 0.28 0.00 86 1016.3
20260831060503 72 0 0.0 0.0 0.00 0.28 0.00 86 1016.3
20260831060413 72 0 0.0 0.0 0.00 0.28 0.00 86 1016.3
20260831060024 72 0 0.0 0.0 0.00 0.28 0.00 86 1016.4
20260831055913 72 0 0.0 0.0 0.00 0.28 0.00 86 1016.4
20260831055503 72 0 0.0 0.0 0.00 0.28 0.00 86 1016.4
20260831055413 72 0 0.0 0.0 0.00 0.28 0.00 86 1016.4
20260831055003 72 0 0.0 0.0 0.00 0.28 0.00 86 1016.5
20260831054913 72 0 0.0 0.0 0.00 0.28 0.00 86 1016.6
20260831054503 72 0 0.0 0.0 0.00 0.28 0.00 86 1016.6
20260831054413 72 0 0.0 0.0 0.00 0.28 0.00 86 1016.6
20260831054003 72 0 0.0 0.0 0.00 0.28 0.00 86 1016.6
20260831053913 72 0 0.0 0.0 0.00 0.28 0.00 86 1016.6
20260831053503 72 265 0.0 1.0 0.00 0.28 0.00 86 1016.6
20260831053413 72 262 0.0 4.0 0.00 0.28 0.00 86 1016.5
20260831053006 72 211 0.0 4.0 0.00 0.28 0.00 86 1016.5
20260831052912 72 204 1.0 4.0 0.00 0.28 0.00 86 1016.5
20260831052524 72 199 1.0 4.0 0.00 0.28 0.00 86 1016.5
20260831052412 72 169 0.0 2.0 0.00 0.28 0.00 86 1016.5
20260831052003 72 169 0.0 2.0 0.00 0.28 0.00 86 1016.5
20260831051912 72 169 0.0 2.0 0.00 0.28 0.00 86 1016.5
20260831051503 72 169 0.0 2.0 0.00 0.28 0.00 86 1016.5
20260831051412 72 169 0.0 2.0 0.00 0.28 0.00 86 1016.5
20260831051003 72 169 0.0 1.0 0.00 0.28 0.00 86 1016.6
20260831050912 72 169 0.0 1.0 0.00 0.28 0.00 86 1016.6
20260831050524 72 169 0.0 1.0 0.00 0.28 0.00 86 1016.7
20260831050412 72 169 0.0 1.0 0.00 0.28 0.00 86 1016.7
20260831050003 72 169 0.0 2.0 0.00 0.28 0.00 86 1016.7
20260831045912 72 169 0.0 2.0 0.00 0.28 0.00 86 1016.7
20260831045503 72 169 0.0 2.0 0.00 0.28 0.00 86 1016.7
20260831045412 72 169 0.0 2.0 0.00 0.28 0.00 86 1016.7
20260831045003 72 169 0.0 2.0 0.00 0.28 0.00 86 1016.7
20260831044912 72 0 0.0 0.0 0.00 0.28 0.00 86 1016.7
20260831044504 73 169 0.0 1.0 0.00 0.28 0.00 86 1016.7
20260831044412 73 169 0.0 1.0 0.00 0.28 0.00 86 1016.7
20260831044003 73 169 0.0 1.0 0.00 0.28 0.00 86 1016.7
20260831043912 73 169 0.0 2.0 0.00 0.28 0.00 86 1016.7
20260831043506 73 169 0.0 2.0 0.00 0.28 0.00 85 1016.7
20260831043412 73 169 0.0 2.0 0.00 0.28 0.00 85 1016.7
20260831043003 73 169 0.0 2.0 0.00 0.28 0.00 85 1016.7
20260831042911 73 169 0.0 2.0 0.00 0.28 0.00 85 1016.7
20260831042503 73 169 0.0 4.0 0.00 0.28 0.00 85 1016.7
20260831042411 73 169 0.0 4.0 0.00 0.28 0.00 85 1016.7
20260831042003 73 169 0.0 4.0 0.00 0.28 0.00 85 1016.7
20260831041911 73 169 0.0 4.0 0.00 0.28 0.00 85 1016.6
20260831041527 73 169 0.0 4.0 0.00 0.28 0.00 85 1016.6
20260831041411 73 169 0.0 4.0 0.00 0.28 0.00 85 1016.6
20260831041003 73 169 1.0 4.0 0.00 0.28 0.00 85 1016.6
20260831040911 73 169 0.0 4.0 0.00 0.28 0.00 85 1016.6
20260831040503 73 169 1.0 4.0 0.00 0.28 0.00 85 1016.7
20260831040411 73 169 1.0 4.0 0.00 0.28 0.00 85 1016.6
20260831040003 73 169 1.0 5.0 0.00 0.28 0.00 85 1016.7
20260831035911 73 169 1.0 5.0 0.00 0.28 0.28 85 1016.6
20260831035503 73 169 1.0 5.0 0.00 0.28 0.28 85 1016.6
20260831035411 73 169 1.0 5.0 0.00 0.28 0.28 85 1016.6
20260831035003 73 169 1.0 5.0 0.00 0.28 0.28 85 1016.6
20260831034911 73 169 1.0 4.0 0.00 0.28 0.28 85 1016.7
20260831034503 73 169 1.0 4.0 0.00 0.28 0.28 85 1016.6
20260831034411 73 169 0.0 4.0 0.00 0.28 0.28 85 1016.5
20260831034003 72 169 0.0 4.0 0.00 0.28 0.28 85 1016.6
20260831033911 72 169 0.0 4.0 0.00 0.28 0.28 85 1016.7
20260831033527 72 169 1.0 4.0 0.00 0.28 0.28 86 1016.7
20260831033411 73 169 1.0 4.0 0.00 0.28 0.28 86 1016.7
20260831033004 72 169 0.0 4.0 0.00 0.28 0.28 86 1016.6
20260831032911 72 169 1.0 4.0 0.00 0.28 0.28 86 1016.7
20260831032503 72 169 0.0 4.0 0.00 0.28 0.28 86 1016.7
20260831032411 72 169 1.0 4.0 0.00 0.28 0.28 86 1016.7
20260831032003 72 169 0.0 4.0 0.00 0.28 0.28 86 1016.6
20260831031910 72 169 0.0 4.0 0.00 0.28 0.28 86 1016.6
20260831031503 72 169 1.0 4.0 0.00 0.28 0.28 86 1016.6
20260831031410 72 169 1.0 4.0 0.00 0.28 0.28 86 1016.6
20260831031003 72 163 1.0 6.0 0.00 0.28 0.28 86 1016.6
20260831030910 72 163 1.0 6.0 0.00 0.28 0.28 86 1016.6
20260831030503 72 167 1.0 6.0 0.00 0.28 0.28 86 1016.6
20260831030410 72 170 1.0 6.0 0.00 0.28 0.28 86 1016.6
20260831030006 72 182 1.0 3.0 0.00 0.28 0.28 86 1016.5
20260831025910 72 185 1.0 3.0 0.00 0.28 0.28 86 1016.6
20260831025503 72 195 0.0 3.0 0.00 0.28 0.28 86 1016.6
20260831025410 72 195 0.0 3.0 0.00 0.28 0.28 86 1016.6
20260831025025 72 190 0.0 5.0 0.00 0.28 0.28 86 1016.6
20260831024910 72 182 0.0 5.0 0.00 0.28 0.28 86 1016.6
20260831024506 72 172 1.0 5.0 0.00 0.28 0.28 86 1016.6
20260831024410 72 166 0.0 5.0 0.00 0.28 0.28 86 1016.5
20260831024003 72 146 1.0 3.0 0.00 0.28 0.28 86 1016.6
20260831023910 72 146 1.0 3.0 0.00 0.28 0.28 86 1016.7
20260831023504 72 146 1.0 3.0 0.00 0.28 0.28 86 1016.6
20260831023410 72 146 1.0 3.0 0.00 0.28 0.28 86 1016.6
20260831023003 72 145 1.0 3.0 0.00 0.28 0.28 86 1016.6
20260831022910 72 144 1.0 4.0 0.00 0.28 0.28 86 1016.7
20260831022503 72 140 1.0 4.0 0.00 0.28 0.28 86 1016.6
20260831022410 72 139 1.0 4.0 0.00 0.28 0.28 86 1016.6
20260831022003 72 133 1.0 4.0 0.00 0.28 0.28 86 1016.7
20260831021910 72 132 1.0 3.0 0.00 0.28 0.28 86 1016.6
20260831021503 72 132 1.0 3.0 0.00 0.28 0.28 86 1016.6
20260831021410 72 132 1.0 3.0 0.00 0.28 0.28 86 1016.6
20260831021003 72 132 1.0 4.0 0.00 0.28 0.28 86 1016.6
20260831020909 72 132 1.0 4.0 0.00 0.28 0.28 86 1016.6
20260831020503 72 132 1.0 4.0 0.00 0.28 0.28 86 1016.7
20260831020409 72 135 1.0 4.0 0.00 0.28 0.28 86 1016.7
20260831020003 72 147 1.0 4.0 0.00 0.28 0.28 86 1016.7
20260831015909 72 148 0.0 4.0 0.00 0.28 0.28 86 1016.7
20260831015503 73 161 0.0 4.0 0.00 0.28 0.28 87 1016.7
20260831015409 73 162 0.0 4.0 0.00 0.28 0.28 87 1016.7
20260831015004 73 165 1.0 5.0 0.00 0.28 0.28 87 1016.7
20260831014909 73 165 1.0 5.0 0.00 0.28 0.28 87 1016.7
20260831014507 73 162 2.0 5.0 0.00 0.28 0.28 87 1016.6
20260831014409 73 162 2.0 5.0 0.00 0.28 0.28 87 1016.6
20260831014024 73 154 2.0 5.0 0.00 0.28 0.28 87 1016.5
20260831013909 73 152 2.0 5.0 0.00 0.28 0.28 87 1016.5
20260831013524 73 147 2.0 5.0 0.00 0.28 0.28 87 1016.5
20260831013409 73 148 2.0 8.0 0.00 0.28 0.28 87 1016.6
20260831013028 73 152 2.0 8.0 0.00 0.28 0.28 87 1016.5
20260831012909 73 158 2.0 8.0 0.00 0.28 0.28 87 1016.4
20260831012503 73 170 2.0 8.0 0.00 0.28 0.28 87 1016.5
20260831012409 73 171 2.0 5.0 0.00 0.28 0.28 87 1016.5
20260831012003 73 175 2.0 6.0 0.00 0.28 0.28 87 1016.6
20260831011909 73 173 2.0 6.0 0.00 0.28 0.28 87 1016.6
20260831011504 73 169 2.0 6.0 0.00 0.28 0.28 87 1016.6
20260831011409 73 167 2.0 6.0 0.00 0.28 0.28 87 1016.6
20260831011004 73 163 2.0 8.0 0.00 0.28 0.28 87 1016.7
20260831010908 73 164 2.0 8.0 0.00 0.28 0.28 87 1016.7
20260831010504 73 158 2.0 8.0 0.00 0.28 0.28 87 1016.6
20260831010408 73 160 3.0 8.0 0.00 0.28 0.28 87 1016.6
20260831010003 73 160 3.0 7.0 0.00 0.28 0.28 87 1016.7
20260831005908 73 161 3.0 7.0 0.00 0.28 0.28 87 1016.6
20260831005503 73 162 3.0 9.0 0.00 0.28 0.28 87 1016.5
20260831005408 73 160 3.0 9.0 0.00 0.28 0.28 87 1016.5
20260831005024 73 160 3.0 10.0 0.00 0.28 0.28 87 1016.4
20260831004908 73 160 3.0 10.0 0.00 0.28 0.28 87 1016.4
20260831004501 73 161 3.0 10.0 0.00 0.28 0.28 87 1016.1
20260831004338 73 161 3.0 10.0 0.00 0.28 0.28 87 1016.1
20260831004001 73 158 3.0 6.0 0.00 0.28 0.28 88 1016.1
20260831003838 73 154 2.0 6.0 0.00 0.28 0.28 88 1016.1
20260831003505 73 153 2.0 6.0 0.00 0.28 0.28 88 1016.0
20260831003338 73 155 3.0 6.0 0.00 0.28 0.28 87 1016.1
20260831003001 73 158 3.0 6.0 0.00 0.28 0.28 87 1016.0
20260831002838 73 161 3.0 7.0 0.00 0.28 0.28 87 1016.1
20260831002501 73 160 3.0 9.0 0.00 0.28 0.28 87 1016.0
20260831002338 73 154 3.0 9.0 0.00 0.28 0.28 87 1016.0
20260831002005 73 149 3.0 9.0 0.00 0.28 0.28 87 1016.1
20260831001838 73 146 3.0 9.0 0.00 0.28 0.28 87 1016.2
20260831001502 73 145 3.0 8.0 0.00 0.28 0.28 87 1016.1
20260831001338 73 145 3.0 7.0 0.00 0.28 0.28 87 1016.1
20260831001001 73 145 3.0 7.0 0.00 0.28 0.28 87 1016.1
20260831000838 73 143 3.0 9.0 0.00 0.28 0.28 87 1016.1
20260831000502 73 141 3.0 9.0 0.00 0.28 0.28 87 1016.2
20260831000340 73 142 4.0 9.0 0.00 0.28 0.28 87 1016.1
20260830235837 73 141 4.0 9.0 0.00 0.28 0.28 87 1016.3
20260830235501 73 140 3.0 8.0 0.00 0.28 0.28 87 1016.3
20260830235337 73 140 3.0 8.0 0.00 0.28 0.28 87 1016.4
20260830235001 73 139 3.0 8.0 0.00 0.28 0.28 87 1016.4
20260830234837 73 138 3.0 8.0 0.00 0.28 0.28 87 1016.5
20260830234501 73 136 3.0 8.0 0.00 0.28 0.28 87 1016.5
20260830234337 73 135 2.0 8.0 0.00 0.28 0.28 87 1016.6
20260830234001 73 137 2.0 4.0 0.00 0.28 0.28 87 1016.7
20260830233837 73 141 2.0 4.0 0.00 0.28 0.28 86 1016.7
20260830233501 73 147 2.0 4.0 0.00 0.28 0.28 86 1016.8
20260830233337 73 152 2.0 5.0 0.00 0.28 0.28 86 1016.9
20260830233002 73 158 2.0 5.0 0.00 0.28 0.28 86 1017.0
20260830232837 73 156 2.0 5.0 0.00 0.28 0.28 86 1017.1
20260830232501 73 158 1.0 5.0 0.00 0.28 0.28 87 1017.2
20260830232337 73 156 1.0 4.0 0.00 0.28 0.28 86 1017.3
20260830232001 73 151 1.0 5.0 0.00 0.28 0.28 86 1017.4
20260830231837 73 158 1.0 5.0 0.00 0.28 0.28 86 1017.4
20260830231501 73 156 1.0 5.0 0.00 0.28 0.28 85 1017.4
20260830231337 73 154 1.0 5.0 0.00 0.28 0.28 85 1017.5
20260830231002 73 152 1.0 3.0 0.00 0.28 0.28 85 1017.5
20260830230837 73 149 0.0 3.0 0.00 0.28 0.28 86 1017.4
20260830230523 73 137 0.0 2.0 0.00 0.28 0.28 87 1017.5
20260830230336 73 0 0.0 0.0 0.00 0.28 0.28 87 1017.4
20260830230001 73 0 0.0 0.0 0.00 0.28 0.28 87 1017.5
20260830225836 73 0 0.0 0.0 0.00 0.28 0.28 87 1017.4
20260830225502 72 0 0.0 0.0 0.00 0.28 0.28 87 1017.4
20260830225336 72 0 0.0 0.0 0.00 0.28 0.28 87 1017.3
20260830225002 72 0 0.0 0.0 0.00 0.28 0.28 87 1017.5
20260830224836 72 0 0.0 0.0 0.00 0.28 0.28 87 1017.5
20260830224501 72 0 0.0 0.0 0.00 0.28 0.28 87 1017.5
20260830224336 72 0 0.0 0.0 0.00 0.28 0.28 87 1017.4
20260830223836 72 160 0.0 1.0 0.00 0.28 0.28 87 1017.4
20260830223501 72 160 0.0 1.0 0.00 0.28 0.28 88 1017.4
20260830223336 72 161 0.0 4.0 0.00 0.28 0.28 88 1017.4
20260830223001 73 163 0.0 4.0 0.00 0.28 0.28 88 1017.2
20260830222836 73 166 1.0 4.0 0.00 0.28 0.28 89 1017.2
20260830222502 73 168 1.0 4.0 0.00 0.28 0.28 89 1017.1
20260830222336 73 171 1.0 5.0 0.00 0.28 0.28 90 1017.0
20260830222002 73 169 1.0 5.0 0.00 0.28 0.28 89 1017.0
20260830221836 73 176 1.0 5.0 0.00 0.28 0.28 89 1017.1
20260830221522 73 174 1.0 5.0 0.00 0.28 0.28 89 1017.0
20260830221336 73 169 1.0 5.0 0.00 0.28 0.28 89 1017.0
20260830221002 73 167 1.0 5.0 0.00 0.28 0.28 89 1017.0
20260830220836 73 159 1.0 5.0 0.00 0.28 0.28 89 1017.2
20260830220502 73 156 1.0 5.0 0.00 0.28 0.28 88 1017.1
20260830220336 73 162 1.0 5.0 0.00 0.28 0.28 88 1017.2
20260830220022 73 168 1.0 5.0 0.00 0.28 0.28 88 1017.2
20260830215835 73 175 1.0 4.0 0.00 0.28 0.28 88 1017.2
20260830215522 73 171 1.0 5.0 0.00 0.28 0.28 88 1017.3
20260830215335 73 162 1.0 5.0 0.00 0.28 0.28 88 1017.3
20260830215002 73 153 1.0 5.0 0.00 0.28 0.28 88 1017.3
20260830214835 73 145 1.0 5.0 0.00 0.28 0.28 88 1017.3
20260830214501 73 146 1.0 4.0 0.00 0.28 0.28 87 1017.3
20260830214335 73 150 1.0 5.0 0.00 0.28 0.28 87 1017.2
20260830214004 73 155 2.0 5.0 0.00 0.28 0.28 88 1017.2
20260830213835 73 158 2.0 5.0 0.00 0.28 0.28 87 1017.1
20260830213501 73 157 2.0 5.0 0.00 0.28 0.28 87 1017.2
20260830213335 73 160 2.0 5.0 0.00 0.28 0.28 87 1017.3
20260830213023 73 159 2.0 6.0 0.00 0.28 0.28 87 1017.2
20260830212835 73 156 2.0 6.0 0.00 0.28 0.28 86 1017.2
20260830212502 73 151 2.0 6.0 0.00 0.28 0.28 86 1017.0
20260830212335 73 145 2.0 6.0 0.00 0.28 0.28 87 1016.9
20260830212001 73 140 2.0 4.0 0.00 0.28 0.28 87 1017.0
20260830211835 73 141 2.0 5.0 0.00 0.28 0.28 86 1016.9
20260830211502 73 146 2.0 6.0 0.00 0.28 0.28 86 1016.9
20260830211335 73 145 2.0 6.0 0.00 0.28 0.28 86 1016.9
20260830211023 73 148 2.0 6.0 0.00 0.28 0.28 86 1016.9
20260830210835 73 146 2.0 6.0 0.00 0.28 0.28 86 1016.9
20260830210525 73 140 2.0 6.0 0.00 0.28 0.28 87 1016.8
20260830210335 73 140 2.0 6.0 0.00 0.28 0.28 87 1016.8
20260830210002 73 138 2.0 4.0 0.00 0.28 0.28 87 1016.7
20260830205835 73 139 2.0 5.0 0.00 0.28 0.28 87 1016.7
20260830205502 73 141 2.0 5.0 0.00 0.28 0.28 87 1016.8
20260830205335 73 142 2.0 5.0 0.00 0.28 0.28 88 1016.9
20260830205001 73 141 2.0 5.0 0.00 0.28 0.28 88 1016.9
20260830204835 73 141 2.0 7.0 0.00 0.28 0.28 88 1016.9
20260830204502 73 140 2.0 7.0 0.00 0.28 0.28 88 1016.9
20260830204334 73 139 2.0 7.0 0.00 0.28 0.28 88 1016.9
20260830204002 73 138 2.0 7.0 0.00 0.28 0.28 89 1016.9
20260830203835 73 137 2.0 5.0 0.00 0.28 0.28 89 1016.8
20260830203501 73 134 2.0 5.0 0.00 0.28 0.28 88 1016.9
20260830203334 73 131 2.0 5.0 0.00 0.28 0.28 88 1016.9
20260830203002 73 133 2.0 4.0 0.00 0.28 0.28 89 1017.0
20260830202834 73 134 2.0 5.0 0.00 0.28 0.28 89 1016.9
20260830202501 72 135 2.0 5.0 0.00 0.28 0.28 88 1016.9
20260830202334 72 137 2.0 7.0 0.00 0.28 0.28 88 1016.8
20260830202005 72 136 2.0 7.0 0.00 0.28 0.28 88 1016.7
20260830201834 72 137 2.0 7.0 0.00 0.28 0.28 88 1016.9
20260830201523 72 139 2.0 7.0 0.00 0.28 0.28 88 1016.8
20260830201334 72 141 2.0 5.0 0.00 0.28 0.28 88 1016.8
20260830201001 72 147 2.0 5.0 0.00 0.28 0.28 88 1016.8
20260830200834 72 147 2.0 5.0 0.00 0.28 0.28 88 1016.9
20260830200501 72 142 2.0 7.0 0.00 0.28 0.28 88 1016.8
20260830200334 72 141 2.0 7.0 0.00 0.28 0.28 88 1016.9
20260830200002 72 142 2.0 7.0 0.00 0.28 0.28 88 1016.9
20260830195834 72 145 2.0 7.0 0.00 0.28 0.28 88 1016.9
20260830195502 72 152 2.0 5.0 0.00 0.28 0.28 88 1016.8
20260830195334 72 159 2.0 5.0 0.00 0.28 0.28 88 1016.8
20260830195001 72 163 2.0 6.0 0.00 0.28 0.28 88 1016.9
20260830194834 72 165 2.0 6.0 0.00 0.28 0.28 88 1016.9
20260830194523 72 168 2.0 6.0 0.00 0.28 0.28 88 1017.0
20260830194334 72 168 2.0 6.0 0.00 0.28 0.28 88 1017.1
20260830194002 72 169 2.0 6.0 0.00 0.28 0.28 88 1017.1
20260830193833 72 169 2.0 6.0 0.00 0.28 0.28 89 1017.1
20260830193525 72 168 1.0 5.0 0.00 0.28 0.28 89 1017.0
20260830193333 72 168 1.0 5.0 0.00 0.28 0.28 89 1017.1
20260830193002 72 167 1.0 5.0 0.00 0.28 0.28 89 1017.1
20260830192833 72 169 1.0 4.0 0.00 0.28 0.28 89 1017.2
20260830192505 72 171 1.0 3.0 0.00 0.28 0.28 89 1017.2
20260830192333 72 171 1.0 3.0 0.00 0.28 0.28 89 1017.1
20260830192023 72 173 0.0 3.0 0.00 0.28 0.28 89 1017.1
20260830191833 72 173 0.0 2.0 0.00 0.28 0.28 89 1017.2
20260830191501 72 173 0.0 1.0 0.00 0.28 0.28 89 1017.3
20260830191333 72 0 0.0 0.0 0.00 0.28 0.28 89 1017.5
20260830191002 72 0 0.0 0.0 0.00 0.28 0.28 89 1017.6
20260830190833 72 0 0.0 0.0 0.00 0.28 0.28 89 1017.6
20260830190502 72 0 0.0 0.0 0.00 0.28 0.28 89 1017.7
20260830190333 72 173 0.0 1.0 0.00 0.28 0.28 89 1017.7
20260830190001 72 173 0.0 1.0 0.00 0.28 0.28 89 1017.6
20260830185833 72 173 0.0 2.0 0.00 0.28 0.28 89 1017.6
20260830185502 72 174 0.0 2.0 0.00 0.28 0.28 89 1017.5
20260830185333 72 174 0.0 2.0 0.00 0.28 0.28 89 1017.5
20260830185002 72 174 0.0 2.0 0.00 0.28 0.28 89 1017.4
20260830184833 72 175 0.0 2.0 0.00 0.28 0.28 89 1017.4
20260830184501 72 175 0.0 3.0 0.00 0.28 0.28 89 1017.3
20260830184333 71 177 0.0 3.0 0.00 0.28 0.28 90 1017.4
20260830184002 71 177 0.0 4.0 0.00 0.28 0.28 89 1017.4
20260830183833 71 172 1.0 4.0 0.00 0.28 0.28 89 1017.4
20260830183502 71 171 1.0 4.0 0.00 0.28 0.28 90 1017.3
20260830183333 71 168 1.0 5.0 0.00 0.28 0.28 90 1017.3
20260830183004 71 166 1.0 5.0 0.00 0.28 0.28 90 1017.2
20260830182832 71 165 1.0 5.0 0.00 0.28 0.28 91 1017.2
20260830182523 71 164 1.0 5.0 0.00 0.28 0.28 91 1017.4
20260830182332 71 162 1.0 4.0 0.00 0.28 0.28 92 1017.4
20260830182023 71 161 1.0 4.0 0.00 0.28 0.28 93 1017.3
20260830181832 71 161 1.0 4.0 0.00 0.28 0.28 93 1017.2
20260830181501 71 161 0.0 4.0 0.00 0.28 0.28 93 1017.3
20260830181332 70 161 0.0 2.0 0.00 0.28 0.28 92 1017.5
20260830181001 70 155 0.0 3.0 0.00 0.28 0.28 92 1017.5
20260830180832 70 159 0.0 3.0 0.00 0.28 0.28 92 1017.5
20260830180502 70 174 1.0 3.0 0.00 0.28 0.28 93 1017.5
20260830180332 70 174 1.0 4.0 0.01 0.28 0.28 93 1017.6
20260830180002 70 173 1.0 4.0 0.01 0.28 0.28 93 1017.5
20260830175832 70 174 1.0 4.0 0.01 0.28 0.28 93 1017.6
20260830175501 70 168 1.0 4.0 0.01 0.28 0.28 93 1017.6
20260830175332 70 166 2.0 4.0 0.01 0.28 0.28 93 1017.6
20260830175002 70 167 1.0 5.0 0.02 0.28 0.28 93 1017.5
20260830174832 70 166 1.0 5.0 0.02 0.28 0.28 93 1017.5
20260830174502 70 163 1.0 5.0 0.02 0.28 0.28 93 1017.7
20260830174332 70 159 0.0 5.0 0.02 0.28 0.28 93 1017.6
20260830174002 70 152 0.0 2.0 0.02 0.28 0.28 93 1017.7
20260830173832 70 152 0.0 2.0 0.02 0.28 0.28 93 1017.9
20260830173502 70 152 0.0 2.0 0.03 0.28 0.28 93 1017.9
20260830173332 70 152 0.0 3.0 0.03 0.28 0.28 93 1017.8
20260830173002 70 152 0.0 3.0 0.04 0.28 0.28 93 1017.8
20260830172832 70 152 0.0 3.0 0.04 0.28 0.28 93 1017.8
20260830172523 70 152 0.0 3.0 0.05 0.28 0.28 93 1017.8
20260830172332 69 152 0.0 2.0 0.05 0.28 0.28 93 1018.0
20260830172001 69 152 0.0 2.0 0.06 0.28 0.28 93 1018.1
20260830171831 69 152 1.0 2.0 0.06 0.28 0.28 93 1018.0
20260830171502 69 152 1.0 3.0 0.06 0.28 0.28 93 1018.0
20260830171331 69 152 1.0 3.0 0.06 0.28 0.28 93 1018.1
20260830171002 69 151 1.0 3.0 0.06 0.28 0.28 92 1018.2
20260830170831 69 151 0.0 3.0 0.06 0.28 0.28 92 1018.1
20260830170523 69 151 0.0 3.0 0.06 0.28 0.28 93 1018.1
20260830170331 69 151 1.0 3.0 0.05 0.27 0.27 93 1018.1
20260830170002 69 151 1.0 3.0 0.05 0.27 0.27 93 1018.0
20260830165831 69 151 1.0 3.0 0.05 0.27 0.27 93 1018.1
20260830165502 69 151 1.0 3.0 0.05 0.27 0.27 93 1018.2
20260830165331 69 151 0.0 5.0 0.05 0.27 0.27 93 1018.3
20260830165023 69 151 0.0 5.0 0.04 0.26 0.26 93 1018.4
20260830164831 69 151 0.0 5.0 0.05 0.26 0.26 93 1018.5
20260830164502 69 151 0.0 5.0 0.05 0.26 0.26 93 1018.4
20260830164331 69 153 1.0 5.0 0.06 0.26 0.26 93 1018.6
20260830164002 69 190 1.0 5.0 0.06 0.26 0.26 93 1018.7
20260830163831 69 194 1.0 5.0 0.06 0.26 0.26 92 1018.9
20260830163505 69 201 1.0 5.0 0.05 0.25 0.25 92 1018.9
20260830163331 69 210 1.0 4.0 0.05 0.25 0.25 92 1019.1
20260830163002 69 214 1.0 3.0 0.04 0.24 0.24 93 1019.2
20260830162831 69 216 1.0 3.0 0.04 0.24 0.24 93 1019.2
20260830162502 69 247 0.0 3.0 0.03 0.23 0.23 93 1019.2
20260830162301 69 260 0.0 3.0 0.04 0.23 0.23 93 1019.3
20260830162002 69 262 0.0 3.0 0.03 0.22 0.22 93 1019.3
20260830161801 69 262 0.0 3.0 0.03 0.22 0.22 92 1019.3
20260830161502 69 262 0.0 2.0 0.03 0.22 0.22 93 1019.3
20260830161301 69 262 0.0 2.0 0.03 0.22 0.22 93 1019.3
20260830161023 69 262 0.0 2.0 0.03 0.22 0.22 93 1019.3
20260830160801 69 262 1.0 2.0 0.03 0.22 0.22 92 1019.3
20260830160502 69 262 1.0 2.0 0.03 0.22 0.22 92 1019.3
20260830160300 69 262 1.0 2.0 0.04 0.22 0.22 92 1019.3
20260830160023 69 262 1.0 2.0 0.04 0.22 0.22 92 1019.5
20260830155800 69 263 0.0 2.0 0.04 0.22 0.22 92 1019.5
20260830155503 69 263 0.0 1.0 0.04 0.22 0.22 92 1019.5
20260830155300 69 263 0.0 1.0 0.04 0.22 0.22 92 1019.6
20260830155002 69 263 0.0 4.0 0.04 0.22 0.22 92 1019.7
20260830154800 69 263 1.0 4.0 0.03 0.21 0.21 92 1019.6
20260830154502 69 261 1.0 6.0 0.03 0.21 0.21 92 1019.6
20260830154300 69 260 1.0 6.0 0.03 0.20 0.20 92 1019.7
20260830154003 69 257 1.0 6.0 0.03 0.20 0.20 92 1019.7
20260830153800 69 261 2.0 7.0 0.03 0.20 0.20 92 1019.8
20260830153505 69 270 2.0 7.0 0.03 0.20 0.20 92 1019.8
20260830153300 69 273 2.0 7.0 0.03 0.20 0.20 92 1019.7
20260830153002 69 275 2.0 7.0 0.03 0.20 0.20 92 1019.9
20260830152800 69 272 2.0 6.0 0.03 0.20 0.20 92 1019.8
20260830152502 69 273 2.0 6.0 0.04 0.20 0.20 92 1019.8
20260830152300 69 273 2.0 6.0 0.03 0.19 0.19 92 1019.7
20260830152002 69 265 3.0 9.0 0.03 0.19 0.19 92 1019.8
20260830151800 69 272 3.0 9.0 0.03 0.19 0.19 92 1019.7
20260830151502 69 262 3.0 9.0 0.03 0.19 0.19 92 1019.8
20260830151300 69 262 3.0 9.0 0.03 0.19 0.19 92 1019.7
20260830151002 69 270 2.0 9.0 0.04 0.19 0.19 92 1019.7
20260830150800 70 265 1.0 9.0 0.04 0.19 0.19 93 1019.6
20260830150502 70 270 1.0 6.0 0.05 0.19 0.19 93 1019.6
20260830150300 70 272 1.0 6.0 0.04 0.18 0.18 93 1019.6
20260830150005 70 269 2.0 8.0 0.04 0.18 0.18 92 1019.4
20260830145800 70 261 3.0 8.0 0.04 0.18 0.18 92 1019.4
20260830145502 70 260 3.0 9.0 0.05 0.18 0.18 92 1019.5
20260830145259 70 257 3.0 9.0 0.06 0.18 0.18 92 1019.4
20260830145003 70 259 3.0 9.0 0.06 0.18 0.18 92 1019.4
20260830144759 70 261 3.0 9.0 0.06 0.18 0.18 93 1019.5
20260830144523 70 262 3.0 9.0 0.07 0.18 0.18 93 1019.4
20260830144259 70 269 2.0 9.0 0.07 0.17 0.17 93 1019.4
20260830144002 70 276 2.0 9.0 0.08 0.17 0.17 93 1019.4
20260830143759 70 281 2.0 9.0 0.09 0.17 0.17 93 1019.2
20260830143503 70 289 1.0 4.0 0.09 0.17 0.17 93 1019.3
20260830143259 70 280 0.0 3.0 0.10 0.17 0.17 93 1019.2
20260830143023 70 258 0.0 3.0 0.10 0.17 0.17 93 1019.3
20260830142759 70 0 0.0 0.0 0.11 0.17 0.17 93 1019.2
20260830142505 70 0 0.0 0.0 0.11 0.16 0.16 93 1019.2
20260830142259 70 0 0.0 0.0 0.12 0.16 0.16 93 1019.1
20260830142003 70 0 0.0 0.0 0.12 0.16 0.16 93 1019.1
20260830141759 70 0 0.0 0.0 0.13 0.16 0.16 93 1019.2
20260830141502 70 0 0.0 0.0 0.13 0.16 0.16 93 1019.1
20260830141259 70 0 0.0 0.0 0.14 0.16 0.16 93 1019.0
20260830141005 70 0 0.0 0.0 0.13 0.15 0.15 93 1018.9
20260830140759 70 244 0.0 2.0 0.13 0.15 0.15 93 1018.8
20260830140502 70 244 0.0 2.0 0.12 0.14 0.14 92 1018.8
20260830140259 70 234 1.0 3.0 0.12 0.14 0.14 92 1018.8
20260830140002 70 233 1.0 3.0 0.12 0.14 0.14 92 1018.8
20260830135759 70 232 2.0 8.0 0.11 0.13 0.13 92 1018.7
20260830135505 70 225 2.0 8.0 0.11 0.13 0.13 92 1018.7
20260830135259 70 220 2.0 8.0 0.10 0.12 0.12 92 1018.6
20260830135024 70 214 2.0 8.0 0.10 0.12 0.12 92 1018.6
20260830134759 70 199 1.0 5.0 0.10 0.12 0.12 92 1018.7
20260830134502 70 189 1.0 4.0 0.09 0.11 0.11 92 1018.8
20260830134259 71 178 0.0 4.0 0.08 0.10 0.10 92 1018.8
20260830134002 71 168 0.0 2.0 0.07 0.09 0.09 93 1018.9
20260830133759 71 168 0.0 1.0 0.06 0.08 0.08 93 1019.0
20260830133502 71 168 0.0 1.0 0.06 0.08 0.08 93 1018.8
20260830133258 71 168 0.0 1.0 0.05 0.07 0.07 93 1019.0
20260830133003 71 168 0.0 1.0 0.05 0.07 0.07 93 1019.0
20260830132758 71 168 0.0 1.0 0.04 0.06 0.06 93 1019.0
20260830132505 71 168 0.0 1.0 0.03 0.05 0.05 93 1018.9
20260830132258 71 168 0.0 1.0 0.02 0.04 0.04 93 1019.0
20260830132002 71 168 0.0 1.0 0.02 0.04 0.04 93 1018.9
20260830131758 71 0 0.0 0.0 0.01 0.03 0.03 93 1018.9
20260830131503 71 0 0.0 0.0 0.01 0.03 0.03 93 1018.9
20260830131258 71 0 0.0 0.0 0.00 0.02 0.02 93 1019.0
20260830131005 71 0 0.0 0.0 0.00 0.02 0.02 93 1019.0
20260830130758 71 0 0.0 0.0 0.00 0.02 0.02 93 1019.0
20260830130502 71 0 0.0 0.0 0.00 0.02 0.02 93 1019.0
20260830130258 71 0 0.0 0.0 0.00 0.02 0.02 93 1019.1
20260830130003 71 0 0.0 0.0 0.00 0.02 0.02 93 1019.0
20260830125758 71 0 0.0 0.0 0.00 0.02 0.02 93 1019.1
20260830125505 71 0 0.0 0.0 0.00 0.02 0.02 92 1019.2
20260830125258 71 0 0.0 0.0 0.00 0.02 0.02 92 1019.1
20260830125002 71 0 0.0 0.0 0.00 0.02 0.02 92 1019.1
20260830124758 71 0 0.0 0.0 0.00 0.02 0.02 92 1019.3
20260830124503 71 0 0.0 0.0 0.00 0.02 0.02 92 1019.3
20260830124258 71 0 0.0 0.0 0.00 0.02 0.02 92 1019.4
20260830124002 71 0 0.0 0.0 0.00 0.02 0.02 92 1019.4
20260830123758 71 168 0.0 1.0 0.00 0.02 0.02 92 1019.3
20260830123502 71 168 0.0 1.0 0.00 0.02 0.02 92 1019.2
20260830123257 71 168 0.0 1.0 0.00 0.02 0.02 92 1019.1
20260830123024 71 168 0.0 1.0 0.00 0.02 0.02 92 1019.2
20260830122757 71 168 0.0 1.0 0.00 0.02 0.02 92 1019.2
20260830122524 71 168 0.0 1.0 0.00 0.02 0.02 92 1019.1
20260830122257 71 168 0.0 1.0 0.00 0.02 0.02 92 1019.1
20260830122002 71 168 0.0 1.0 0.00 0.02 0.02 92 1019.1
20260830121757 71 168 0.0 2.0 0.00 0.02 0.02 92 1019.0
20260830121502 71 168 0.0 2.0 0.00 0.02 0.02 92 1019.2
20260830121257 71 168 1.0 2.0 0.00 0.02 0.02 92 1019.1
20260830121003 71 168 1.0 2.0 0.00 0.02 0.02 92 1019.1
20260830120757 71 168 0.0 2.0 0.00 0.02 0.02 92 1019.0
20260830120502 71 168 0.0 2.0 0.00 0.02 0.02 92 1018.9
20260830120257 71 168 0.0 2.0 0.00 0.02 0.02 92 1018.7
20260830120002 71 0 0.0 0.0 0.00 0.02 0.02 92 1018.7
20260830115757 71 0 0.0 0.0 0.00 0.02 0.02 92 1018.4
20260830115503 71 0 0.0 0.0 0.00 0.02 0.02 92 1018.3
20260830115257 71 0 0.0 0.0 0.00 0.02 0.02 91 1018.2
20260830115002 71 0 0.0 0.0 0.00 0.02 0.02 91 1018.1
20260830114757 71 0 0.0 0.0 0.00 0.02 0.02 91 1017.9
20260830114502 71 0 0.0 0.0 0.00 0.02 0.02 91 1018.0
20260830114257 71 0 0.0 0.0 0.01 0.02 0.02 91 1018.0
20260830114002 71 0 0.0 0.0 0.01 0.02 0.02 91 1017.8
20260830113757 71 0 0.0 0.0 0.01 0.02 0.02 91 1017.8
20260830113524 71 0 0.0 0.0 0.01 0.02 0.02 91 1017.8
20260830113256 71 0 0.0 0.0 0.01 0.02 0.02 91 1018.0
20260830113006 71 0 0.0 0.0 0.01 0.02 0.02 91 1017.9
20260830112756 71 168 0.0 2.0 0.01 0.02 0.02 91 1017.7
20260830112502 71 168 0.0 2.0 0.01 0.02 0.02 91 1017.6
20260830112256 71 168 0.0 2.0 0.01 0.02 0.02 91 1017.6
20260830112002 71 169 0.0 2.0 0.01 0.02 0.02 91 1017.5
20260830111756 71 169 0.0 2.0 0.01 0.02 0.02 92 1017.5
20260830111503 71 169 0.0 2.0 0.01 0.02 0.02 92 1017.6
20260830111256 71 169 0.0 2.0 0.01 0.02 0.02 92 1017.5
20260830111003 71 169 0.0 2.0 0.01 0.02 0.02 92 1017.5
20260830110756 71 169 0.0 2.0 0.01 0.02 0.02 92 1017.6
20260830110502 71 0 0.0 0.0 0.01 0.02 0.02 92 1017.6
20260830110256 71 0 0.0 0.0 0.01 0.02 0.02 92 1017.5
20260830110005 71 0 0.0 0.0 0.01 0.02 0.02 92 1017.5
20260830105756 71 0 0.0 0.0 0.02 0.02 0.02 92 1017.6
20260830105503 71 0 0.0 0.0 0.02 0.02 0.02 92 1017.5
20260830105256 71 0 0.0 0.0 0.02 0.02 0.02 92 1017.6
20260830105005 71 0 0.0 0.0 0.02 0.02 0.02 92 1017.5
20260830104756 71 0 0.0 0.0 0.02 0.02 0.02 92 1017.5
20260830104505 71 0 0.0 0.0 0.02 0.02 0.02 92 1017.6
20260830104256 71 0 0.0 0.0 0.01 0.01 0.01 92 1017.6
20260830104003 71 0 0.0 0.0 0.01 0.01 0.01 92 1017.8
20260830103756 71 0 0.0 0.0 0.01 0.01 0.01 92 1017.7
20260830103503 71 0 0.0 0.0 0.01 0.01 0.01 92 1017.7
20260830103256 71 0 0.0 0.0 0.01 0.01 0.01 92 1017.6
20260830103002 71 0 0.0 0.0 0.01 0.01 0.01 92 1017.6
20260830102756 71 0 0.0 0.0 0.01 0.01 0.01 92 1017.5
20260830102524 71 0 0.0 0.0 0.01 0.01 0.01 92 1017.5
20260830102256 71 0 0.0 0.0 0.01 0.01 0.01 92 1017.7
20260830102003 71 0 0.0 0.0 0.01 0.01 0.01 92 1017.7
20260830101756 71 0 0.0 0.0 0.01 0.01 0.01 92 1017.8
20260830101502 71 0 0.0 0.0 0.01 0.01 0.01 92 1018.0
20260830101255 71 0 0.0 0.0 0.01 0.01 0.01 91 1018.0
20260830101002 71 0 0.0 0.0 0.01 0.01 0.01 91 1018.0
20260830100755 71 0 0.0 0.0 0.01 0.01 0.01 91 1018.1
20260830100524 71 0 0.0 0.0 0.01 0.01 0.01 91 1018.1
20260830100255 71 0 0.0 0.0 0.01 0.01 0.01 91 1018.1
20260830100003 71 0 0.0 0.0 0.01 0.01 0.01 91 1018.3
20260830095755 71 0 0.0 0.0 0.00 0.00 0.00 91 1018.2
20260830095502 71 0 0.0 0.0 0.00 0.00 0.00 91 1018.4
20260830095255 71 0 0.0 0.0 0.00 0.00 0.00 91 1018.5
20260830095002 71 0 0.0 0.0 0.00 0.00 0.00 91 1018.4
20260830094755 71 0 0.0 0.0 0.00 0.00 0.00 91 1018.3
20260830094503 71 0 0.0 0.0 0.00 0.00 0.00 91 1018.1
20260830094255 71 0 0.0 0.0 0.00 0.00 0.00 90 1018.0
20260830094024 71 0 0.0 0.0 0.00 0.00 0.00 90 1018.0
20260830093755 71 0 0.0 0.0 0.00 0.00 0.00 90 1018.1
20260830093523 71 0 0.0 0.0 0.00 0.00 0.00 90 1018.1
20260830093255 71 0 0.0 0.0 0.00 0.00 0.00 90 1018.2
20260830093024 71 0 0.0 0.0 0.00 0.00 0.00 90 1018.2
20260830092755 71 0 0.0 0.0 0.00 0.00 0.00 90 1018.1
20260830092503 71 0 0.0 0.0 0.00 0.00 0.00 90 1018.3
20260830092255 71 0 0.0 0.0 0.00 0.00 0.00 90 1018.3
20260830092005 71 0 0.0 0.0 0.00 0.00 0.00 90 1018.4
20260830091755 71 0 0.0 0.0 0.00 0.00 0.00 89 1018.3
20260830091502 71 0 0.0 0.0 0.00 0.00 0.00 89 1018.4
20260830091255 71 0 0.0 0.0 0.00 0.00 0.00 89 1018.4
20260830091003 71 0 0.0 0.0 0.00 0.00 0.00 89 1018.4
20260830090754 71 0 0.0 0.0 0.00 0.00 0.00 89 1018.3
20260830090505 71 0 0.0 0.0 0.00 0.00 0.00 89 1018.3
20260830090254 71 0 0.0 0.0 0.00 0.00 0.00 89 1018.3
20260830085754 71 0 0.0 0.0 0.00 0.00 0.00 89 1018.4
20260830085503 71 0 0.0 0.0 0.00 0.00 0.00 89 1018.5
20260830085254 71 0 0.0 0.0 0.00 0.00 0.00 89 1018.5
20260830085003 71 0 0.0 0.0 0.00 0.00 0.00 89 1018.6
20260830084754 71 0 0.0 0.0 0.00 0.00 0.00 88 1018.5
20260830084503 71 0 0.0 0.0 0.00 0.00 0.00 88 1018.5
20260830084254 71 0 0.0 0.0 0.00 0.00 0.00 88 1018.4
20260830084002 71 0 0.0 0.0 0.00 0.00 0.00 88 1018.5
20260830083754 72 0 0.0 0.0 0.00 0.00 0.00 88 1018.5
20260830083503 72 0 0.0 0.0 0.00 0.00 0.00 88 1018.5
20260830083254 72 0 0.0 0.0 0.00 0.00 0.00 88 1018.6
20260830083003 72 0 0.0 0.0 0.00 0.00 0.00 88 1018.6
20260830082754 72 0 0.0 0.0 0.00 0.00 0.00 88 1018.7
20260830082506 72 0 0.0 0.0 0.00 0.00 0.00 88 1018.6
20260830082254 72 0 0.0 0.0 0.00 0.00 0.00 87 1018.7
20260830082002 72 0 0.0 0.0 0.00 0.00 0.00 87 1018.6
20260830081754 72 0 0.0 0.0 0.00 0.00 0.00 88 1018.6
20260830081503 72 0 0.0 0.0 0.00 0.00 0.00 88 1018.7
20260830081254 72 0 0.0 0.0 0.00 0.00 0.00 87 1018.8
20260830081006 72 0 0.0 0.0 0.00 0.00 0.00 87 1018.8
20260830080753 72 0 0.0 0.0 0.00 0.00 0.00 87 1018.8
20260830080502 72 0 0.0 0.0 0.00 0.00 0.00 87 1018.8
20260830080253 72 0 0.0 0.0 0.00 0.00 0.00 87 1018.8
20260830080003 72 0 0.0 0.0 0.00 0.00 0.00 87 1018.8
20260830075753 72 0 0.0 0.0 0.00 0.00 0.00 87 1018.8
20260830075503 72 0 0.0 0.0 0.00 0.00 0.00 87 1018.8
20260830075253 72 0 0.0 0.0 0.00 0.00 0.00 87 1018.8
20260830075002 72 0 0.0 0.0 0.00 0.00 0.00 87 1018.8
20260830074753 72 0 0.0 0.0 0.00 0.00 0.00 86 1018.7
20260830074524 72 0 0.0 0.0 0.00 0.00 0.00 86 1018.8
20260830074253 72 0 0.0 0.0 0.00 0.00 0.00 86 1018.7
20260830074003 72 0 0.0 0.0 0.00 0.00 0.00 86 1018.7
20260830073753 72 0 0.0 0.0 0.00 0.00 0.00 86 1018.7
20260830073506 72 0 0.0 0.0 0.00 0.00 0.00 86 1018.7
20260830073253 72 0 0.0 0.0 0.00 0.00 0.00 86 1018.7
20260830073002 72 0 0.0 0.0 0.00 0.00 0.00 86 1018.7
20260830072753 72 0 0.0 0.0 0.00 0.00 0.00 86 1018.8
20260830072503 72 0 0.0 0.0 0.00 0.00 0.00 86 1018.8
20260830072253 72 0 0.0 0.0 0.00 0.00 0.00 86 1018.8
20260830072005 72 0 0.0 0.0 0.00 0.00 0.00 86 1018.8
20260830071753 72 0 0.0 0.0 0.00 0.00 0.00 86 1018.7
20260830071506 72 0 0.0 0.0 0.00 0.00 0.00 86 1018.7
20260830071253 72 0 0.0 0.0 0.00 0.00 0.00 85 1018.6
20260830071003 72 0 0.0 0.0 0.00 0.00 0.00 85 1018.7
20260830070753 72 0 0.0 0.0 0.00 0.00 0.00 85 1018.6
20260830070503 72 0 0.0 0.0 0.00 0.00 0.00 85 1018.7
20260830070253 72 0 0.0 0.0 0.00 0.00 0.00 85 1018.6
20260830070024 72 0 0.0 0.0 0.00 0.00 0.00 86 1018.5
20260830065753 72 0 0.0 0.0 0.00 0.00 0.00 85 1018.6
20260830065502 72 0 0.0 0.0 0.00 0.00 0.00 85 1018.5
20260830065252 72 170 0.0 1.0 0.00 0.00 0.00 85 1018.5
20260830065003 72 170 0.0 1.0 0.00 0.00 0.00 85 1018.4
20260830064752 72 170 0.0 1.0 0.00 0.00 0.00 85 1018.5
20260830064524 72 170 0.0 1.0 0.00 0.00 0.00 85 1018.5
20260830064252 72 170 0.0 1.0 0.00 0.00 0.00 85 1018.7
20260830064023 72 170 0.0 1.0 0.00 0.00 0.00 85 1018.7
20260830063752 72 170 0.0 1.0 0.00 0.00 0.00 85 1018.7
20260830063506 72 170 0.0 1.0 0.00 0.00 0.00 85 1018.7
20260830063252 73 170 0.0 1.0 0.00 0.00 0.00 85 1018.8
20260830063003 72 170 0.0 1.0 0.00 0.00 0.00 85 1018.8
20260830062752 73 170 0.0 1.0 0.00 0.00 0.00 85 1018.8
20260830062503 73 170 0.0 1.0 0.00 0.00 0.00 85 1018.8
20260830062252 73 170 0.0 1.0 0.00 0.00 0.00 85 1018.8
20260830062002 73 170 0.0 1.0 0.00 0.00 0.00 85 1019.0
20260830061752 73 170 0.0 1.0 0.00 0.00 0.00 84 1018.9